KF4PPJ Weather Reports


time (UTC)temp
C
wind
direction
speed
KPH
gust
KPH
rain 1hr
cm
rain 24hr
cm
rain mn
cm
humidity
%
barometer
mb
20260831153030 13 151 0.0 1.6 0.00 0.00 0.00 95 1016.7
20260831152525 13 145 0.0 4.8 0.00 0.00 0.00 95 1016.7
20260831152020 13 148 0.0 3.2 0.00 0.00 0.00 95 1017.0
20260831151514 13 157 0.0 0.0 0.00 0.00 0.00 96 1016.8
20260831151014 12 140 0.0 0.0 0.00 0.00 0.00 96 1017.1
20260831150509 12 128 0.0 1.6 0.00 0.00 0.00 96 1016.8
20260831150005 12 148 0.0 0.0 0.00 0.00 0.00 96 1017.2
20260831145459 12 146 0.0 0.0 0.00 0.00 0.00 96 1016.8
20260831144955 12 154 0.0 0.0 0.00 0.00 0.00 96 1016.7
20260831144450 11 152 0.0 0.0 0.00 0.00 0.00 96 1016.8
20260831143946 11 153 0.0 0.0 0.00 0.00 0.00 96 1016.6
20260831143440 11 158 0.0 0.0 0.00 0.00 0.00 96 1016.7
20260831142936 11 153 0.0 0.0 0.00 0.00 0.00 96 1016.8
20260831142432 11 152 0.0 0.0 0.00 0.00 0.00 96 1016.9
20260831141926 11 152 0.0 0.0 0.00 0.00 0.00 96 1016.7
20260831141420 11 152 0.0 0.0 0.00 0.00 0.00 96 1016.9
20260831140915 11 154 0.0 0.0 0.00 0.00 0.00 95 1017.0
20260831140409 11 154 0.0 0.0 0.00 0.00 0.00 95 1017.0
20260831135903 11 151 0.0 0.0 0.00 0.00 0.00 95 1016.9
20260831135403 11 151 0.0 0.0 0.00 0.00 0.00 95 1016.6
20260831134858 11 150 0.0 0.0 0.00 0.00 0.00 95 1016.8
20260831134354 11 152 0.0 0.0 0.00 0.00 0.00 95 1016.7
20260831133854 11 151 0.0 0.0 0.00 0.00 0.00 95 1016.7
20260831133353 11 152 0.0 0.0 0.00 0.00 0.00 95 1016.9
20260831132850 11 152 0.0 0.0 0.00 0.00 0.00 95 1016.7
20260831132344 11 153 0.0 0.0 0.00 0.00 0.00 95 1016.6
20260831131838 11 154 0.0 0.0 0.00 0.00 0.00 94 1016.8
20260831131335 11 154 0.0 0.0 0.00 0.00 0.00 94 1016.7
20260831130835 11 154 0.0 0.0 0.00 0.00 0.00 94 1016.9
20260831130331 11 153 0.0 0.0 0.00 0.00 0.00 94 1016.8
20260831125829 11 150 0.0 0.0 0.00 0.00 0.00 94 1016.8
20260831125325 11 153 0.0 0.0 0.00 0.00 0.00 94 1016.8
20260831124825 11 150 0.0 0.0 0.00 0.00 0.00 94 1017.0
20260831124321 12 152 0.0 0.0 0.00 0.00 0.00 94 1016.9
20260831123821 12 135 1.6 1.6 0.00 0.00 0.00 94 1016.8
20260831123320 12 154 0.0 0.0 0.00 0.00 0.00 93 1016.8
20260831122815 12 154 0.0 1.6 0.00 0.00 0.00 93 1017.1
20260831122311 12 153 0.0 0.0 0.00 0.00 0.00 93 1017.1
20260831121810 12 144 0.0 1.6 0.00 0.00 0.00 93 1017.1
20260831121307 12 153 0.0 1.6 0.00 0.00 0.00 92 1017.0
20260831120802 12 153 0.0 0.0 0.00 0.00 0.00 92 1017.1
20260831120256 12 150 0.0 1.6 0.00 0.00 0.00 92 1017.0
20260831115752 12 150 0.0 0.0 0.00 0.00 0.00 92 1017.1
20260831115248 12 153 0.0 0.0 0.00 0.00 0.00 91 1017.1
20260831114747 13 153 0.0 1.6 0.00 0.00 0.00 92 1017.2
20260831114246 12 2 8.0 11.3 0.00 0.00 0.00 92 1017.3
20260831113742 12 146 0.0 3.2 0.00 0.00 0.00 92 1017.4
20260831113236 12 156 0.0 0.0 0.00 0.00 0.00 91 1017.4
20260831112736 12 143 0.0 0.0 0.00 0.00 0.00 91 1017.6
20260831112231 12 147 1.6 1.6 0.00 0.00 0.00 91 1017.6
20260831111727 12 151 1.6 1.6 0.00 0.00 0.00 91 1017.5
20260831111223 12 159 0.0 1.6 0.00 0.00 0.00 90 1017.6
20260831110718 13 147 0.0 0.0 0.00 0.00 0.00 90 1017.4
20260831110213 13 132 0.0 1.6 0.00 0.00 0.00 90 1017.8
20260831105712 13 137 0.0 1.6 0.00 0.00 0.00 89 1017.6
20260831105208 13 156 0.0 1.6 0.00 0.00 0.00 89 1017.7
20260831104702 13 132 1.6 1.6 0.00 0.00 0.00 88 1017.6
20260831104159 13 132 1.6 1.6 0.00 0.00 0.00 88 1017.7
20260831103654 13 100 1.6 1.6 0.00 0.00 0.00 88 1017.4
20260831103150 13 145 0.0 3.2 0.00 0.00 0.00 89 1017.7
20260831102649 13 167 0.0 8.0 0.00 0.00 0.00 88 1017.5
20260831102144 13 139 1.6 3.2 0.00 0.00 0.00 88 1017.9
20260831101639 13 152 0.0 0.0 0.00 0.00 0.00 87 1017.8
20260831101135 13 158 0.0 0.0 0.00 0.00 0.00 86 1017.9
20260831100631 13 165 0.0 3.2 0.00 0.00 0.00 86 1018.0
20260831100127 13 166 0.0 1.6 0.00 0.00 0.00 85 1017.9
20260831095625 13 144 0.0 1.6 0.00 0.00 0.00 85 1018.2
20260831095120 13 122 3.2 4.8 0.00 0.00 0.00 86 1018.0
20260831094615 13 117 0.0 3.2 0.00 0.00 0.00 87 1018.0
20260831094112 13 148 0.0 4.8 0.00 0.00 0.00 89 1017.9
20260831093607 12 144 1.6 1.6 0.00 0.00 0.00 90 1018.3
20260831093103 12 155 0.0 3.2 0.00 0.00 0.00 91 1018.4
20260831092558 12 152 0.0 1.6 0.00 0.00 0.00 91 1018.2
20260831092054 12 151 0.0 1.6 0.00 0.00 0.00 91 1018.6
20260831091554 12 150 0.0 3.2 0.00 0.00 0.00 91 1018.5
20260831091049 12 161 0.0 1.6 0.00 0.00 0.00 91 1018.5
20260831090544 12 152 0.0 0.0 0.00 0.00 0.00 91 1018.5
20260831090041 12 156 0.0 0.0 0.00 0.00 0.00 91 1018.4
20260831085541 12 152 0.0 0.0 0.00 0.00 0.00 91 1018.6
20260831085036 12 153 0.0 0.0 0.00 0.00 0.00 91 1018.6
20260831084532 12 139 0.0 0.0 0.00 0.00 0.00 92 1018.7
20260831084028 12 152 0.0 0.0 0.00 0.00 0.00 91 1018.5
20260831083523 12 154 0.0 0.0 0.00 0.00 0.00 91 1018.6
20260831083018 12 152 0.0 0.0 0.00 0.00 0.00 91 1018.6
20260831082517 12 149 0.0 0.0 0.00 0.00 0.00 92 1018.6
20260831082013 12 140 0.0 0.0 0.00 0.00 0.00 92 1018.5
20260831081509 12 148 0.0 0.0 0.00 0.00 0.00 92 1018.6
20260831081004 12 149 0.0 0.0 0.00 0.00 0.00 91 1018.6
20260831080458 12 148 0.0 0.0 0.00 0.00 0.00 91 1018.8
20260831075953 12 149 0.0 0.0 0.00 0.00 0.00 91 1018.7
20260831075449 12 153 0.0 0.0 0.00 0.00 0.00 91 1018.9
20260831074944 12 153 0.0 0.0 0.00 0.00 0.00 91 1018.8
20260831074438 12 153 0.0 0.0 0.00 0.00 0.00 90 1019.0
20260831073933 12 153 0.0 0.0 0.00 0.00 0.00 90 1019.0
20260831073432 12 153 0.0 0.0 0.00 0.00 0.00 90 1018.9
20260831072927 12 154 0.0 0.0 0.00 0.00 0.00 90 1019.3
20260831072423 12 154 0.0 0.0 0.00 0.00 0.00 89 1019.1
20260831071919 12 156 0.0 0.0 0.00 0.00 0.00 89 1019.1
20260831071418 12 157 0.0 0.0 0.00 0.00 0.00 88 1019.0
20260831070913 12 150 0.0 1.6 0.00 0.00 0.00 88 1019.0
20260831070412 13 152 0.0 0.0 0.00 0.00 0.00 88 1019.2
20260831065911 13 152 0.0 1.6 0.00 0.00 0.00 87 1019.5
20260831065409 13 160 0.0 0.0 0.00 0.00 0.00 87 1019.5
20260831064904 13 155 0.0 1.6 0.00 0.00 0.00 86 1019.5
20260831064359 13 152 0.0 0.0 0.00 0.00 0.00 86 1019.4
20260831063855 13 153 0.0 0.0 0.00 0.00 0.00 85 1019.5
20260831063350 13 156 0.0 0.0 0.00 0.00 0.00 85 1019.3
20260831062850 13 149 0.0 0.0 0.00 0.00 0.00 84 1019.5
20260831062345 13 161 0.0 0.0 0.00 0.00 0.00 83 1019.6
20260831061843 13 152 0.0 0.0 0.00 0.00 0.00 83 1019.9
20260831061343 13 160 0.0 0.0 0.00 0.00 0.00 81 1019.8
20260831060840 14 165 0.0 1.6 0.00 0.00 0.00 81 1019.7
20260831060339 14 161 0.0 0.0 0.00 0.00 0.00 80 1019.7
20260831055839 15 147 0.0 0.0 0.00 0.00 0.00 79 1019.8
20260831055334 15 146 0.0 0.0 0.00 0.00 0.00 78 1019.8
20260831054830 15 146 0.0 1.6 0.00 0.00 0.00 78 1019.7
20260831054325 15 145 1.6 3.2 0.00 0.00 0.00 77 1019.9
20260831053824 15 135 4.8 4.8 0.00 0.00 0.00 77 1019.9
20260831053322 15 149 0.0 1.6 0.00 0.00 0.00 75 1020.0
20260831052817 16 140 1.6 3.2 0.00 0.00 0.00 74 1020.2
20260831052316 16 127 3.2 4.8 0.00 0.00 0.00 73 1020.4
20260831051814 16 146 0.0 1.6 0.00 0.00 0.00 73 1020.1
20260831051313 16 115 0.0 1.6 0.00 0.00 0.00 73 1020.2
20260831050808 16 150 0.0 1.6 0.00 0.00 0.00 72 1020.3
20260831050302 16 155 4.8 9.7 0.00 0.00 0.00 72 1020.2
20260831045756 16 151 1.6 3.2 0.00 0.00 0.00 71 1019.9
20260831045256 16 140 1.6 3.2 0.00 0.00 0.00 72 1020.3
20260831044751 15 152 0.0 1.6 0.00 0.00 0.00 73 1020.5
20260831044246 16 141 0.0 1.6 0.00 0.00 0.00 72 1020.5
20260831043742 16 132 0.0 1.6 0.00 0.00 0.00 71 1020.5
20260831043236 16 132 1.6 3.2 0.00 0.00 0.00 71 1020.4
20260831042731 16 122 0.0 3.2 0.00 0.00 0.00 70 1020.4
20260831042226 16 148 0.0 4.8 0.00 0.00 0.00 69 1020.3
20260831041721 16 163 1.6 3.2 0.00 0.00 0.00 69 1020.3
20260831041220 16 120 3.2 8.0 0.00 0.00 0.00 69 1020.4
20260831040715 16 137 0.0 3.2 0.00 0.00 0.00 69 1020.5
20260831040215 16 150 0.0 1.6 0.00 0.00 0.00 69 1020.1
20260831035713 16 144 0.0 1.6 0.00 0.00 0.00 68 1020.5
20260831035208 16 154 0.0 1.6 0.00 0.00 0.00 68 1020.3
20260831034707 16 303 6.4 9.7 0.00 0.00 0.00 69 1020.3
20260831034203 16 46 4.8 11.3 0.00 0.00 0.00 71 1020.5
20260831033658 16 162 1.6 1.6 0.00 0.00 0.00 71 1020.2
20260831033157 16 150 0.0 3.2 0.00 0.00 0.00 71 1020.3
20260831032652 16 155 0.0 1.6 0.00 0.00 0.00 72 1020.2
20260831032148 16 149 1.6 3.2 0.00 0.00 0.00 72 1020.2
20260831031647 16 155 1.6 1.6 0.00 0.00 0.00 71 1020.1
20260831031147 16 152 1.6 1.6 0.00 0.00 0.00 72 1020.1
20260831030645 16 147 0.0 1.6 0.00 0.00 0.00 71 1020.0
20260831030145 16 147 0.0 1.6 0.00 0.00 0.00 71 1020.1
20260831025643 16 153 0.0 1.6 0.00 0.00 0.00 71 1020.0
20260831025138 16 150 0.0 1.6 0.00 0.00 0.00 70 1020.2
20260831024635 17 148 0.0 1.6 0.00 0.00 0.00 69 1020.3
20260831024134 17 148 0.0 0.0 0.00 0.00 0.00 69 1020.2
20260831023632 17 148 0.0 1.6 0.00 0.00 0.00 68 1020.2
20260831023131 17 148 1.6 1.6 0.00 0.00 0.00 67 1020.3
20260831022626 17 149 0.0 1.6 0.00 0.00 0.00 67 1020.2
20260831022121 18 148 0.0 3.2 0.00 0.00 0.00 65 1020.5
20260831021620 18 156 0.0 4.8 0.00 0.00 0.00 64 1020.2
20260831021116 18 140 3.2 3.2 0.00 0.00 0.00 64 1020.3
20260831020612 18 156 0.0 1.6 0.00 0.00 0.00 63 1020.6
20260831015557 19 137 1.6 3.2 0.00 0.00 0.00 62 1020.7
20260831015056 20 151 0.0 0.0 0.00 0.00 0.00 60 1020.4
20260831014552 20 147 1.6 3.2 0.00 0.00 0.00 56 1020.7
20260831014048 20 164 1.6 3.2 0.00 0.00 0.00 55 1020.6
20260831013544 20 186 3.2 9.7 0.00 0.00 0.00 51 1020.7
20260831013043 20 166 1.6 3.2 0.00 0.00 0.00 52 1020.5
20260831012538 20 185 3.2 4.8 0.00 0.00 0.00 51 1020.7
20260831012033 20 166 6.4 12.9 0.00 0.00 0.00 51 1020.7
20260831011532 20 203 6.4 8.0 0.00 0.00 0.00 50 1020.9
20260831011028 20 216 4.8 8.0 0.00 0.00 0.00 49 1020.9
20260831010523 21 197 6.4 9.7 0.00 0.00 0.00 49 1020.8
20260831010019 21 202 4.8 12.9 0.00 0.00 0.00 49 1020.8
20260831005519 21 198 1.6 8.0 0.00 0.00 0.00 48 1020.8
20260831005019 22 213 6.4 8.0 0.00 0.00 0.00 47 1020.9
20260831004515 22 179 4.8 8.0 0.00 0.00 0.00 47 1020.7
20260831004010 22 247 4.8 4.8 0.00 0.00 0.00 46 1020.9
20260831003507 22 209 1.6 4.8 0.00 0.00 0.00 46 1021.0
20260831003002 22 181 3.2 4.8 0.00 0.00 0.00 45 1020.7
20260831002500 22 152 1.6 4.8 0.00 0.00 0.00 48 1021.0
20260831001955 22 162 3.2 8.0 0.00 0.00 0.00 47 1021.2
20260831001451 21 220 4.8 8.0 0.00 0.00 0.00 48 1021.1
20260831000948 21 203 1.6 9.7 0.00 0.00 0.00 48 1021.2
20260831000443 22 232 6.4 11.3 0.00 0.00 0.00 47 1021.2
20260830235941 22 239 6.4 11.3 0.00 0.00 0.00 46 1021.5
20260830235437 22 205 4.8 8.0 0.00 0.00 0.00 46 1021.3
20260830234932 22 246 6.4 8.0 0.00 0.00 0.00 46 1021.3
20260830234427 22 212 4.8 12.9 0.00 0.00 0.00 49 1021.4
20260830233922 22 181 4.8 9.7 0.00 0.00 0.00 49 1021.4
20260830233418 22 185 8.0 11.3 0.00 0.00 0.00 48 1021.4
20260830232913 22 188 8.0 11.3 0.00 0.00 0.00 51 1021.5
20260830232409 22 222 6.4 8.0 0.00 0.00 0.00 51 1021.6
20260830231906 22 201 3.2 11.3 0.00 0.00 0.00 52 1021.4
20260830231400 21 172 4.8 11.3 0.00 0.00 0.00 54 1021.6
20260830230900 21 172 4.8 8.0 0.00 0.00 0.00 53 1021.5
20260830230355 21 190 4.8 8.0 0.00 0.00 0.00 52 1021.6
20260830225854 21 149 4.8 11.3 0.00 0.00 0.00 53 1021.7
20260830225350 21 174 1.6 4.8 0.00 0.00 0.00 51 1021.6
20260830224845 21 215 4.8 8.0 0.00 0.00 0.00 52 1021.8
20260830224344 22 215 3.2 8.0 0.00 0.00 0.00 51 1021.8
20260830223841 21 160 0.0 8.0 0.00 0.00 0.00 54 1022.0
20260830223337 21 190 4.8 4.8 0.00 0.00 0.00 56 1021.9
20260830222836 20 175 8.0 9.7 0.00 0.00 0.00 56 1022.0
20260830222332 20 156 6.4 11.3 0.00 0.00 0.00 57 1022.0
20260830221827 20 185 8.0 12.9 0.00 0.00 0.00 56 1022.2
20260830221324 21 192 4.8 8.0 0.00 0.00 0.00 55 1022.2
20260830220819 20 213 8.0 9.7 0.00 0.00 0.00 55 1022.1
20260830220318 21 223 6.4 12.9 0.00 0.00 0.00 54 1022.2
20260830215816 21 196 4.8 9.7 0.00 0.00 0.00 53 1022.1
20260830215311 20 171 4.8 8.0 0.00 0.00 0.00 55 1022.3
20260830214806 20 242 8.0 11.3 0.00 0.00 0.00 55 1022.3
20260830214301 20 188 9.7 12.9 0.00 0.00 0.00 55 1022.3
20260830213801 20 213 4.8 8.0 0.00 0.00 0.00 56 1022.4
20260830213255 20 254 11.3 12.9 0.00 0.00 0.00 56 1022.2
20260830212752 20 269 8.0 9.7 0.00 0.00 0.00 58 1022.7
20260830212247 20 194 8.0 11.3 0.00 0.00 0.00 59 1022.5
20260830211746 20 224 9.7 11.3 0.00 0.00 0.00 59 1022.8
20260830211246 20 202 6.4 11.3 0.00 0.00 0.00 59 1022.9
20260830210742 19 143 6.4 9.7 0.00 0.00 0.00 60 1022.6
20260830210241 19 85 4.8 11.3 0.00 0.00 0.00 60 1022.9
20260830205738 20 211 8.0 14.5 0.00 0.00 0.00 59 1022.8
20260830205233 19 191 3.2 3.2 0.00 0.00 0.00 62 1022.9
20260830204729 19 184 4.8 9.7 0.00 0.00 0.00 62 1022.9
20260830204227 19 204 4.8 11.3 0.00 0.00 0.00 63 1022.9
20260830203723 18 206 4.8 9.7 0.00 0.00 0.00 64 1022.9
20260830203218 18 177 6.4 11.3 0.00 0.00 0.00 64 1023.0
20260830202718 18 236 8.0 12.9 0.00 0.00 0.00 65 1023.0
20260830202214 18 186 4.8 9.7 0.00 0.00 0.00 66 1022.9
20260830201713 18 213 6.4 8.0 0.00 0.00 0.00 66 1023.1
20260830201208 18 217 11.3 14.5 0.00 0.00 0.00 65 1023.1
20260830200703 18 162 3.2 11.3 0.00 0.00 0.00 64 1023.2
20260830200202 18 198 6.4 9.7 0.00 0.00 0.00 64 1023.4
20260830195658 18 185 11.3 12.9 0.00 0.00 0.00 66 1023.2
20260830195156 18 171 6.4 9.7 0.00 0.00 0.00 67 1023.2
20260830194655 18 230 6.4 9.7 0.00 0.00 0.00 65 1023.3
20260830194155 18 224 6.4 9.7 0.00 0.00 0.00 66 1023.3
20260830193650 18 248 8.0 12.9 0.00 0.00 0.00 67 1023.5
20260830193150 18 180 6.4 9.7 0.00 0.00 0.00 66 1023.3
20260830192646 18 183 6.4 12.9 0.00 0.00 0.00 67 1023.2
20260830192140 18 243 9.7 11.3 0.00 0.00 0.00 66 1023.4
20260830191636 17 228 8.0 9.7 0.00 0.00 0.00 68 1023.3
20260830191132 18 249 6.4 11.3 0.00 0.00 0.00 67 1023.3
20260830190627 17 200 3.2 8.0 0.00 0.00 0.00 68 1023.4
20260830190122 17 236 3.2 8.0 0.00 0.00 0.00 69 1023.4
20260830185620 17 230 11.3 12.9 0.00 0.00 0.00 69 1023.3
20260830185116 17 227 6.4 9.7 0.00 0.00 0.00 69 1023.4
20260830184615 17 228 4.8 8.0 0.00 0.00 0.00 69 1023.4
20260830184109 17 218 4.8 9.7 0.00 0.00 0.00 70 1023.5
20260830183604 17 207 8.0 11.3 0.00 0.00 0.00 69 1023.5
20260830183100 17 170 4.8 8.0 0.00 0.00 0.00 70 1023.3
20260830182555 16 262 4.8 9.7 0.00 0.00 0.00 72 1023.3
20260830182052 16 188 3.2 8.0 0.00 0.00 0.00 71 1023.7
20260830181548 16 218 4.8 9.7 0.00 0.00 0.00 71 1023.5
20260830181047 17 226 8.0 12.9 0.00 0.00 0.00 70 1023.5
20260830180546 16 187 8.0 14.5 0.00 0.00 0.00 72 1023.5
20260830180046 17 176 3.2 8.0 0.00 0.00 0.00 70 1023.3
20260830175545 16 180 4.8 11.3 0.00 0.00 0.00 72 1023.6
20260830175040 16 167 6.4 9.7 0.00 0.00 0.00 72 1023.4
20260830174536 16 209 4.8 9.7 0.00 0.00 0.00 74 1023.3
20260830174031 16 132 3.2 8.0 0.00 0.00 0.00 74 1023.7
20260830173527 16 228 8.0 11.3 0.00 0.00 0.00 73 1023.7
20260830173021 16 237 9.7 17.7 0.00 0.00 0.00 73 1023.5
20260830172518 16 189 3.2 8.0 0.00 0.00 0.00 73 1023.5
20260830172014 16 176 4.8 8.0 0.00 0.00 0.00 75 1023.4
20260830171509 15 204 4.8 16.1 0.00 0.00 0.00 75 1023.5
20260830171009 16 193 4.8 9.7 0.00 0.00 0.00 74 1023.6
20260830170503 15 222 3.2 8.0 0.00 0.00 0.00 75 1023.4
20260830170001 15 197 4.8 9.7 0.00 0.00 0.00 77 1023.4
20260830165458 15 204 4.8 14.5 0.00 0.00 0.00 76 1023.2
20260830164953 15 150 4.8 9.7 0.00 0.00 0.00 77 1023.5
20260830164449 15 221 12.9 20.9 0.00 0.00 0.00 76 1023.5
20260830163945 15 194 4.8 4.8 0.00 0.00 0.00 77 1023.5
20260830163442 15 214 4.8 8.0 0.00 0.00 0.00 77 1023.2
20260830162941 15 194 1.6 3.2 0.00 0.00 0.00 78 1023.2
20260830162437 15 202 4.8 9.7 0.00 0.00 0.00 78 1023.4
20260830161937 15 161 1.6 8.0 0.00 0.00 0.00 78 1023.5
20260830161431 15 218 3.2 8.0 0.00 0.00 0.00 77 1023.5
20260830160926 15 133 11.3 16.1 0.00 0.00 0.00 77 1023.5
20260830160423 15 193 6.4 9.7 0.00 0.00 0.00 77 1023.6
20260830155917 15 226 6.4 11.3 0.00 0.00 0.00 77 1023.4
20260830155414 14 180 3.2 3.2 0.00 0.00 0.00 77 1023.4
20260830154908 15 222 4.8 8.0 0.00 0.00 0.00 77 1023.4
20260830154404 15 161 0.0 8.0 0.00 0.00 0.00 78 1023.6
20260830153901 15 202 8.0 11.3 0.00 0.00 0.00 77 1023.4